星链-35982(STARLINK-35982)

导读

STARLINK-35982是美国SpaceX公司星链(Starlink)星座的成员卫星,于2025年12月31日发射。星链计划旨在构建全球覆盖、低时延的天基互联网通信系统,可为民用市场提供高速宽带服务,同时也具备重要的军事应用潜力。作为该大规模低轨星座的最新增量卫星,它将进一步拓展星链网络的全球覆盖范围与通信容量,推动天基互联网服务的普及。

基本信息
目录编号:
66828
目录名称:
STARLINK-35982
国际标识:
2025-280H
轨道中心:
EARTH
卫星名称:
星链-35982
卫星全名:
星链-35982(STARLINK-35982)
卫星状态:
在轨 (已飞行193 天)
发射日期:
2025-12-02 UTC
国别 :
美国 (US)
星等 :
--
轨道信息
数据来源 国际轨道数据
星历时间: 2026-06-13T03:50:12+0800
11小时前
查看轨道信息
半长轴: 6950.169km
偏心率: 0.0003018
轨道倾角: 70.002°
近地点辐角 265.086°
升交点赤经 94.698°
平近点角 94.996°
近地点: 569.934km
远地点: 574.13km
周期: 96.106分钟
每日圈数: 14.983378
详细信息
固有亮度:
5
最大亮度:
2.5
卫星平台:
Starlink V1.0
覆盖范围:
全球
运营商:
太空探索技术公司
运营商所在国:
美国
制造商(研发单位):
太空探索技术公司
制造商所在国:
美国
使用方式:
暂无
卫星简介
Starlink 计划是 SpaceX 推出的全球卫星互联网项目,通过发射低轨道卫星,为全球尤其是偏远地区提供高速、低延迟的互联网服务。自 2019 年起,Starlink 已部署数千颗卫星,旨在缩小全球数字鸿沟,推动互联网普及。该项目还为军事、航空等行业提供通信支持,带来广泛经济效益。
2D轨道图
3D轨道图
轨道高度分析图
轨道倾角分析图
轨道综合分析图
查看轨道综合分析图